User: anonymous   Login
Location: Muenchen
(48.1800°N, 11.5800°E)
Time: 04:02:36
(UTC+02:00)
Language:

Sich 1 Rocket - Orbit

View from above orbital plane
View from above orbital plane
View from above satellite
View from above satellite

Ground track
Ground track

The orbit data is extracted from the following two-line orbital elements,

1 23659U 95046C   15209.57705968  .00000140  00000-0  16138-4 0  9991
2 23659 082.5282 225.2518 0024968 332.7512 143.8226 14.78081474 72673
Epoch (UTC): 28 July 2015 13:50:57
Eccentricity: 0.0024968
inclination: 82.5282°
perigee height: 618 km
apogee height: 653 km
right ascension of ascending node: 225.2518°
argument of perigee: 332.7512°
revolutions per day: 14.78081474
mean anomaly at epoch: 143.8226°
orbit number at epoch: 7267

The dashed part of the orbit path shows where the satellite is in the earth's shadow,  

DLR